RYR3XM GMAD-EIDW

Flight info

Callsign RYR3XM
Flight time 3h 28m
Altitude 34000
Route MOGBA UH300 ESS DCT TAKAV DCT PINEK DCT KORUL/N0461F350 DCT AMPOP/N0458F360 DCT UPCAB DCT IJALA DCT EVRIN DCT BUNED BUNED4L
Aircraft B738/M-SDE2E3FGHIRWXY/LB1

Departure

Time 2026-05-05 16:16
Airport Al Massira Airport (GMAD)

Arrival

Time 2026-05-05 19:44
Airport Dublin Airport (EIDW)
Time Latitude Longitude Altitude Speed Heading
2026-05-05 15:30 30.32886 -9.41198 230 ft 0 kts
2026-05-05 16:06 30.32878 -9.41198 231 ft 4 kts
2026-05-05 16:06 30.32851 -9.41202 232 ft 4 kts 14°
2026-05-05 16:06 30.32827 -9.41213 233 ft 4 kts 38°
2026-05-05 16:06 30.32813 -9.41233 230 ft 2 kts 90°
2026-05-05 16:07 30.32813 -9.41235 230 ft 1 kts 91°
2026-05-05 16:09 30.32813 -9.41234 230 ft 1 kts 91°
2026-05-05 16:10 30.32813 -9.41204 230 ft 6 kts 91°
2026-05-05 16:10 30.32811 -9.41132 230 ft 11 kts 91°
2026-05-05 16:10 30.32808 -9.41030 230 ft 14 kts 92°
2026-05-05 16:10 30.32805 -9.40904 230 ft 17 kts 92°
2026-05-05 16:11 30.32803 -9.40761 230 ft 18 kts 91°
2026-05-05 16:11 30.32503 -9.40670 230 ft 16 kts 177°
2026-05-05 16:12 30.32437 -9.40588 230 ft 15 kts 92°
2026-05-05 16:12 30.32431 -9.40349 230 ft 14 kts 92°
2026-05-05 16:13 30.32424 -9.40027 230 ft 13 kts 91°
2026-05-05 16:13 30.32421 -9.39923 230 ft 13 kts 91°
2026-05-05 16:13 30.32418 -9.39810 230 ft 15 kts 92°
2026-05-05 16:14 30.32411 -9.39546 230 ft 14 kts 101°
2026-05-05 16:14 30.32259 -9.39505 230 ft 13 kts 216°
2026-05-05 16:15 30.32232 -9.39987 233 ft 85 kts 271°
2026-05-05 16:15 30.32301 -9.42309 412 ft 188 kts 270°
2026-05-05 16:16 30.32454 -9.45450 1931 ft 176 kts 271°
2026-05-05 16:16 30.32562 -9.48440 2829 ft 207 kts 267°
2026-05-05 16:17 30.31010 -9.51582 3303 ft 245 kts 230°
2026-05-05 16:17 30.29827 -9.53018 3822 ft 248 kts 228°
2026-05-05 16:18 30.27400 -9.56138 4736 ft 269 kts 245°
2026-05-05 16:18 30.26857 -9.58150 5510 ft 263 kts 258°
2026-05-05 16:18 30.25965 -9.62263 6940 ft 264 kts 257°
2026-05-05 16:19 30.25511 -9.64330 7633 ft 265 kts 256°
2026-05-05 16:19 30.25055 -9.66399 8324 ft 266 kts 256°
2026-05-05 16:19 30.24866 -9.70586 9659 ft 272 kts 294°
2026-05-05 16:20 30.27797 -9.73568 10399 ft 309 kts 328°
2026-05-05 16:20 30.31873 -9.75922 10688 ft 346 kts 328°
2026-05-05 16:21 30.36638 -9.77664 11020 ft 388 kts 356°
2026-05-05 16:22 30.44866 -9.76914 12499 ft 401 kts 359°
2026-05-05 16:22 30.50465 -9.76399 13554 ft 406 kts 358°
2026-05-05 16:23 30.56147 -9.75914 14523 ft 412 kts 358°
2026-05-05 16:23 30.59019 -9.75669 15053 ft 415 kts 358°
2026-05-05 16:23 30.64782 -9.75177 16044 ft 421 kts 357°
2026-05-05 16:24 30.67721 -9.74925 16517 ft 425 kts 357°
2026-05-05 16:24 30.70675 -9.74668 17064 ft 427 kts 356°
2026-05-05 16:24 30.76641 -9.74151 17960 ft 433 kts 356°
2026-05-05 16:25 30.79663 -9.73890 18368 ft 437 kts 356°
2026-05-05 16:25 30.85772 -9.73362 19171 ft 444 kts 355°
2026-05-05 16:25 30.88862 -9.73094 19554 ft 448 kts 356°
2026-05-05 16:26 30.95132 -9.72549 20305 ft 454 kts 356°
2026-05-05 16:26 31.01481 -9.71996 21076 ft 460 kts 356°
2026-05-05 16:27 31.04690 -9.71721 21447 ft 463 kts 355°
2026-05-05 16:27 31.07909 -9.71449 21815 ft 465 kts 355°
2026-05-05 16:27 31.11151 -9.71175 22177 ft 468 kts 355°
2026-05-05 16:27 31.14408 -9.70899 22519 ft 471 kts 355°
2026-05-05 16:28 31.17665 -9.70653 23071 ft 466 kts 354°
2026-05-05 16:28 31.20854 -9.70413 23632 ft 466 kts 355°
2026-05-05 16:28 31.24102 -9.70118 23839 ft 471 kts 355°
2026-05-05 16:28 31.27390 -9.69814 24023 ft 476 kts 355°
2026-05-05 16:29 31.30701 -9.69513 24282 ft 478 kts 355°
2026-05-05 16:29 31.34024 -9.69220 24578 ft 480 kts 355°
2026-05-05 16:29 31.37366 -9.68933 24842 ft 482 kts 355°
2026-05-05 16:29 31.40720 -9.68650 25074 ft 485 kts 355°
2026-05-05 16:30 31.44094 -9.68398 25328 ft 487 kts 355°
2026-05-05 16:30 31.47484 -9.68177 25550 ft 489 kts 355°
2026-05-05 16:30 31.50892 -9.67965 25775 ft 492 kts 355°
2026-05-05 16:30 31.54317 -9.67755 26011 ft 494 kts 355°
2026-05-05 16:31 31.57755 -9.67540 26239 ft 496 kts 355°
2026-05-05 16:31 31.61210 -9.67320 26469 ft 499 kts 355°
2026-05-05 16:31 31.64682 -9.67095 26699 ft 501 kts 355°
2026-05-05 16:31 31.68173 -9.66867 26914 ft 503 kts 355°
2026-05-05 16:32 31.71674 -9.66636 27208 ft 505 kts 354°
2026-05-05 16:32 31.75185 -9.66402 27489 ft 505 kts 354°
2026-05-05 16:32 31.78693 -9.66169 27799 ft 505 kts 354°
2026-05-05 16:32 31.82154 -9.65938 28099 ft 505 kts 353°
2026-05-05 16:33 31.85664 -9.65705 28380 ft 506 kts 353°
2026-05-05 16:33 31.89183 -9.65472 28671 ft 506 kts 353°
2026-05-05 16:33 31.92698 -9.65239 28992 ft 506 kts 353°
2026-05-05 16:33 31.96210 -9.65006 29296 ft 506 kts 352°
2026-05-05 16:34 31.99726 -9.64771 29768 ft 503 kts 353°
2026-05-05 16:34 32.03187 -9.64532 30424 ft 495 kts 353°
2026-05-05 16:34 32.06619 -9.64300 30700 ft 495 kts 353°
2026-05-05 16:34 32.10071 -9.64075 30812 ft 498 kts 353°
2026-05-05 16:35 32.13538 -9.63851 30979 ft 500 kts 353°
2026-05-05 16:35 32.17011 -9.63624 31282 ft 499 kts 353°
2026-05-05 16:35 32.20466 -9.63393 31635 ft 496 kts 353°
2026-05-05 16:35 32.23910 -9.63160 31947 ft 495 kts 353°
2026-05-05 16:36 32.26188 -9.63008 32186 ft 493 kts 354°
2026-05-05 16:36 32.29574 -9.62776 32843 ft 483 kts 354°
2026-05-05 16:36 32.32918 -9.62548 33205 ft 481 kts 354°
2026-05-05 16:36 32.37348 -9.62254 33469 ft 482 kts 354°
2026-05-05 16:37 32.39611 -9.62106 33570 ft 483 kts 354°
2026-05-05 16:37 32.42978 -9.61887 33720 ft 485 kts 354°
2026-05-05 16:37 32.46348 -9.61665 33925 ft 485 kts 354°
2026-05-05 16:37 32.49725 -9.61440 34057 ft 487 kts 354°
2026-05-05 16:38 32.56479 -9.60984 34057 ft 483 kts 355°
2026-05-05 16:38 32.63083 -9.60532 34047 ft 475 kts 355°
2026-05-05 16:39 32.69691 -9.60090 34065 ft 476 kts 355°
2026-05-05 16:39 32.76320 -9.59647 34061 ft 477 kts 355°
2026-05-05 16:40 32.82952 -9.59202 34068 ft 477 kts 357°
2026-05-05 16:40 32.89539 -9.58756 34060 ft 477 kts 357°
2026-05-05 16:41 32.96164 -9.58306 34060 ft 476 kts 357°
2026-05-05 16:41 33.02777 -9.57857 34064 ft 475 kts 357°
2026-05-05 16:42 33.09375 -9.57409 34062 ft 475 kts 357°
2026-05-05 16:42 33.15967 -9.56961 34064 ft 474 kts 357°
2026-05-05 16:43 33.22549 -9.56512 34069 ft 473 kts 357°
2026-05-05 16:43 33.29126 -9.56064 34067 ft 473 kts 357°
2026-05-05 16:44 33.35677 -9.55617 34103 ft 469 kts
2026-05-05 16:44 33.42088 -9.55176 34075 ft 461 kts 360°
2026-05-05 16:45 33.48511 -9.54736 34076 ft 462 kts 360°
2026-05-05 16:45 33.54940 -9.54297 34079 ft 463 kts
2026-05-05 16:46 33.61368 -9.53856 34092 ft 462 kts
2026-05-05 16:46 33.67791 -9.53414 34074 ft 462 kts
2026-05-05 16:47 33.74203 -9.52971 34075 ft 461 kts
2026-05-05 16:47 33.80561 -9.52533 34077 ft 460 kts
2026-05-05 16:48 33.86946 -9.52089 34082 ft 459 kts
2026-05-05 16:48 33.93328 -9.51647 34081 ft 459 kts
2026-05-05 16:49 33.99717 -9.51205 34084 ft 460 kts
2026-05-05 16:49 34.06113 -9.50761 34083 ft 460 kts
2026-05-05 16:50 34.12471 -9.50319 34092 ft 461 kts
2026-05-05 16:50 34.18877 -9.49872 34086 ft 461 kts
2026-05-05 16:51 34.25285 -9.49425 34082 ft 461 kts
2026-05-05 16:51 34.31697 -9.48977 34088 ft 461 kts
2026-05-05 16:52 34.38107 -9.48528 34090 ft 461 kts
2026-05-05 16:52 34.44517 -9.48079 34085 ft 461 kts
2026-05-05 16:53 34.50888 -9.47631 34092 ft 461 kts
2026-05-05 16:53 34.57296 -9.47181 34091 ft 462 kts
2026-05-05 16:54 34.63710 -9.46729 34089 ft 462 kts
2026-05-05 16:54 34.70138 -9.46276 34095 ft 463 kts
2026-05-05 16:55 34.76592 -9.45820 34090 ft 465 kts
2026-05-05 16:55 34.83068 -9.45362 34094 ft 467 kts
2026-05-05 16:56 34.89576 -9.44901 34097 ft 469 kts
2026-05-05 16:56 34.96064 -9.44441 34092 ft 471 kts
2026-05-05 16:57 35.02616 -9.43975 34091 ft 472 kts
2026-05-05 16:57 35.09187 -9.43506 34093 ft 473 kts
2026-05-05 16:58 35.15762 -9.43037 34100 ft 474 kts
2026-05-05 16:58 35.22348 -9.42567 34092 ft 474 kts
2026-05-05 16:59 35.28928 -9.42096 34091 ft 473 kts
2026-05-05 16:59 35.35505 -9.41624 34092 ft 473 kts
2026-05-05 17:00 35.42064 -9.41152 34106 ft 472 kts 360°
2026-05-05 17:00 35.48576 -9.40684 34095 ft 471 kts 360°
2026-05-05 17:01 35.55111 -9.40214 34095 ft 469 kts 360°
2026-05-05 17:01 35.61625 -9.39744 34093 ft 468 kts 360°
2026-05-05 17:02 35.68118 -9.39274 34094 ft 467 kts 360°
2026-05-05 17:02 35.74603 -9.38805 34095 ft 466 kts 360°
2026-05-05 17:03 35.81079 -9.38297 34089 ft 467 kts
2026-05-05 17:03 35.87551 -9.37524 34090 ft 468 kts
2026-05-05 17:04 35.93983 -9.36692 34095 ft 468 kts
2026-05-05 17:04 36.00468 -9.35882 34090 ft 469 kts
2026-05-05 17:05 36.06962 -9.35094 34090 ft 469 kts
2026-05-05 17:05 36.13466 -9.34313 34090 ft 470 kts
2026-05-05 17:06 36.19973 -9.33531 34095 ft 470 kts
2026-05-05 17:06 36.26490 -9.32746 34089 ft 470 kts
2026-05-05 17:07 36.33011 -9.31957 34087 ft 470 kts
2026-05-05 17:07 36.39482 -9.31173 34108 ft 470 kts
2026-05-05 17:08 36.46002 -9.30383 34074 ft 470 kts
2026-05-05 17:08 36.52514 -9.29591 34077 ft 470 kts
2026-05-05 17:09 36.59012 -9.28800 34094 ft 469 kts
2026-05-05 17:09 36.65499 -9.28009 34106 ft 468 kts
2026-05-05 17:10 36.71983 -9.27218 34093 ft 468 kts
2026-05-05 17:10 36.78416 -9.26431 34092 ft 467 kts
2026-05-05 17:11 36.84881 -9.25639 34095 ft 467 kts
2026-05-05 17:11 36.91345 -9.24846 34093 ft 467 kts
2026-05-05 17:12 36.97816 -9.24050 34080 ft 467 kts
2026-05-05 17:12 37.04274 -9.23255 34083 ft 467 kts
2026-05-05 17:13 37.10738 -9.22458 34086 ft 466 kts
2026-05-05 17:13 37.17165 -9.21664 34088 ft 467 kts
2026-05-05 17:14 37.23624 -9.20864 34087 ft 467 kts
2026-05-05 17:14 37.30087 -9.20062 34087 ft 466 kts
2026-05-05 17:15 37.36542 -9.19260 34101 ft 466 kts
2026-05-05 17:15 37.43000 -9.18457 34087 ft 466 kts
2026-05-05 17:16 37.49449 -9.17653 34080 ft 465 kts
2026-05-05 17:16 37.55851 -9.16853 34079 ft 465 kts
2026-05-05 17:17 37.62288 -9.16048 34093 ft 465 kts 359°
2026-05-05 17:17 37.68732 -9.15241 34085 ft 465 kts 359°
2026-05-05 17:18 37.75169 -9.14433 34072 ft 465 kts 359°
2026-05-05 17:18 37.81603 -9.13624 34071 ft 465 kts 359°
2026-05-05 17:19 37.88038 -9.12814 34084 ft 465 kts 359°
2026-05-05 17:19 37.94478 -9.12002 34078 ft 465 kts 359°
2026-05-05 17:20 38.00881 -9.11192 34074 ft 465 kts 359°
2026-05-05 17:20 38.07324 -9.10376 34076 ft 466 kts 359°
2026-05-05 17:21 38.13778 -9.09558 34073 ft 466 kts 359°
2026-05-05 17:22 38.23459 -9.08327 34065 ft 466 kts 359°
2026-05-05 17:22 38.29917 -9.07504 34066 ft 466 kts 359°
2026-05-05 17:23 38.36379 -9.06679 34066 ft 467 kts 359°
2026-05-05 17:23 38.42836 -9.05854 34061 ft 467 kts 359°
2026-05-05 17:24 38.49298 -9.05026 34057 ft 466 kts 359°
2026-05-05 17:24 38.55755 -9.04197 34074 ft 466 kts 358°
2026-05-05 17:25 38.62215 -9.03366 34068 ft 466 kts 358°
2026-05-05 17:25 38.68665 -9.02535 34073 ft 466 kts 358°
2026-05-05 17:26 38.75104 -9.01704 34076 ft 465 kts 358°
2026-05-05 17:26 38.81504 -9.00877 34082 ft 465 kts 358°
2026-05-05 17:27 38.87936 -9.00044 34080 ft 464 kts 358°
2026-05-05 17:27 38.94360 -8.99211 34076 ft 464 kts 358°
2026-05-05 17:28 39.00772 -8.98377 34101 ft 462 kts 359°
2026-05-05 17:28 39.07174 -8.97544 34082 ft 462 kts 359°
2026-05-05 17:29 39.13577 -8.96709 34074 ft 462 kts 359°
2026-05-05 17:29 39.19978 -8.95873 34077 ft 463 kts 359°
2026-05-05 17:30 39.26382 -8.95036 34093 ft 463 kts
2026-05-05 17:30 39.32802 -8.94194 34079 ft 464 kts
2026-05-05 17:31 39.39185 -8.93355 34067 ft 464 kts
2026-05-05 17:31 39.45599 -8.92510 34081 ft 464 kts
2026-05-05 17:32 39.52025 -8.91662 34077 ft 464 kts
2026-05-05 17:32 39.58449 -8.90813 34074 ft 464 kts
2026-05-05 17:33 39.64869 -8.89963 34074 ft 463 kts
2026-05-05 17:33 39.71277 -8.89113 34094 ft 462 kts
2026-05-05 17:34 39.77669 -8.88263 34076 ft 461 kts
2026-05-05 17:34 39.84047 -8.87414 34071 ft 460 kts
2026-05-05 17:35 39.90401 -8.86566 34075 ft 458 kts
2026-05-05 17:35 39.95664 -8.85863 34087 ft 457 kts 360°
2026-05-05 17:36 40.03027 -8.84878 34076 ft 457 kts 360°
2026-05-05 17:36 40.08285 -8.84173 34071 ft 457 kts 360°
2026-05-05 17:37 40.14599 -8.83326 34099 ft 456 kts
2026-05-05 17:37 40.20919 -8.82475 34077 ft 456 kts
2026-05-05 17:38 40.27241 -8.81623 34071 ft 456 kts
2026-05-05 17:38 40.33557 -8.80770 34077 ft 456 kts
2026-05-05 17:39 40.39869 -8.79916 34077 ft 456 kts
2026-05-05 17:39 40.46185 -8.79059 34064 ft 456 kts
2026-05-05 17:40 40.52502 -8.78201 34068 ft 456 kts
2026-05-05 17:40 40.58774 -8.77347 34080 ft 456 kts
2026-05-05 17:41 40.65104 -8.76484 34068 ft 457 kts
2026-05-05 17:41 40.71422 -8.75621 34066 ft 457 kts
2026-05-05 17:42 40.77744 -8.74755 34065 ft 457 kts
2026-05-05 17:42 40.84070 -8.73888 34078 ft 457 kts
2026-05-05 17:43 40.90391 -8.73019 34078 ft 456 kts
2026-05-05 17:43 40.96708 -8.72149 34072 ft 456 kts
2026-05-05 17:44 41.03020 -8.71278 34101 ft 456 kts
2026-05-05 17:44 41.09331 -8.70406 34081 ft 455 kts
2026-05-05 17:45 41.15622 -8.69535 34074 ft 454 kts
2026-05-05 17:45 41.21902 -8.68663 34076 ft 453 kts
2026-05-05 17:46 41.28135 -8.67797 34076 ft 453 kts
2026-05-05 17:46 41.34401 -8.66924 34075 ft 452 kts
2026-05-05 17:47 41.40652 -8.66052 34074 ft 451 kts
2026-05-05 17:47 41.46893 -8.65180 34091 ft 450 kts
2026-05-05 17:48 41.53137 -8.64305 34058 ft 450 kts
2026-05-05 17:48 41.59364 -8.63431 34059 ft 449 kts
2026-05-05 17:49 41.65547 -8.62561 34063 ft 449 kts
2026-05-05 17:49 41.71757 -8.61686 34075 ft 449 kts
2026-05-05 17:50 41.77966 -8.60810 34051 ft 448 kts
2026-05-05 17:50 41.84163 -8.59869 34053 ft 449 kts
2026-05-05 17:51 41.90170 -8.57297 34079 ft 457 kts 17°
2026-05-05 17:51 41.96053 -8.54058 34065 ft 457 kts 18°
2026-05-05 17:52 42.00932 -8.51372 34067 ft 455 kts 17°
2026-05-05 17:52 42.07800 -8.47646 34060 ft 455 kts 17°
2026-05-05 17:53 42.13683 -8.44478 34070 ft 455 kts 17°
2026-05-05 17:53 42.19555 -8.41314 34064 ft 454 kts 17°
2026-05-05 17:54 42.25385 -8.38166 34062 ft 454 kts 17°
2026-05-05 17:54 42.31255 -8.34989 34079 ft 453 kts 17°
2026-05-05 17:55 42.37102 -8.31817 34070 ft 452 kts 17°
2026-05-05 17:55 42.42931 -8.28649 34061 ft 451 kts 17°
2026-05-05 17:56 42.48748 -8.25481 34072 ft 450 kts 17°
2026-05-05 17:56 42.54548 -8.22316 34071 ft 449 kts 17°
2026-05-05 17:57 42.60303 -8.19169 34068 ft 449 kts 17°
2026-05-05 17:57 42.66088 -8.16001 34069 ft 448 kts 17°
2026-05-05 17:58 42.71883 -8.12820 34064 ft 449 kts 17°
2026-05-05 17:58 42.77673 -8.09635 34068 ft 449 kts 17°
2026-05-05 17:59 42.83464 -8.06441 34071 ft 448 kts 17°
2026-05-05 17:59 42.89241 -8.03251 34067 ft 448 kts 17°
2026-05-05 18:00 42.95008 -8.00059 34080 ft 447 kts 17°
2026-05-05 18:00 43.00771 -7.96863 34078 ft 446 kts 17°
2026-05-05 18:01 43.06520 -7.93668 34079 ft 446 kts 17°
2026-05-05 18:01 43.12224 -7.90491 34077 ft 445 kts 17°
2026-05-05 18:02 43.17959 -7.87292 34087 ft 445 kts 17°
2026-05-05 18:02 43.23681 -7.84092 34059 ft 443 kts 17°
2026-05-05 18:03 43.29384 -7.80897 34054 ft 442 kts 17°
2026-05-05 18:03 43.35062 -7.77709 34074 ft 440 kts 17°
2026-05-05 18:04 43.40728 -7.74522 34067 ft 439 kts 17°
2026-05-05 18:04 43.46335 -7.71362 34072 ft 438 kts 17°
2026-05-05 18:05 43.51973 -7.68178 34068 ft 437 kts 17°
2026-05-05 18:05 43.57595 -7.64996 34087 ft 436 kts 17°
2026-05-05 18:06 43.63205 -7.61815 34071 ft 436 kts 17°
2026-05-05 18:06 43.68814 -7.58629 34070 ft 436 kts 18°
2026-05-05 18:07 43.74427 -7.55434 34060 ft 437 kts 18°
2026-05-05 18:07 43.80050 -7.52226 34067 ft 437 kts 18°
2026-05-05 18:08 43.85682 -7.49006 34060 ft 439 kts 18°
2026-05-05 18:08 43.91299 -7.45789 34055 ft 440 kts 18°
2026-05-05 18:09 43.96964 -7.42537 34053 ft 441 kts 18°
2026-05-05 18:09 44.02638 -7.39273 34057 ft 442 kts 19°
2026-05-05 18:10 44.08325 -7.35994 34050 ft 442 kts 19°
2026-05-05 18:10 44.14010 -7.32710 34048 ft 442 kts 19°
2026-05-05 18:11 44.19691 -7.29421 34062 ft 442 kts 19°
2026-05-05 18:11 44.25367 -7.26128 34043 ft 441 kts 19°
2026-05-05 18:12 44.30995 -7.22856 34042 ft 441 kts 19°
2026-05-05 18:12 44.36651 -7.19562 34050 ft 441 kts 19°
2026-05-05 18:13 44.42309 -7.16260 34055 ft 441 kts 20°
2026-05-05 18:13 44.47967 -7.12950 34042 ft 441 kts 20°
2026-05-05 18:14 44.53622 -7.09635 34039 ft 440 kts 20°
2026-05-05 18:14 44.59280 -7.06311 34041 ft 440 kts 20°
2026-05-05 18:15 44.64932 -7.02983 34033 ft 440 kts 20°
2026-05-05 18:15 44.70580 -6.99651 34035 ft 440 kts 20°
2026-05-05 18:16 44.76195 -6.96331 34039 ft 441 kts 20°
2026-05-05 18:16 44.81851 -6.93010 34039 ft 440 kts 18°
2026-05-05 18:17 44.87784 -6.91205 34039 ft 435 kts
2026-05-05 18:17 44.93814 -6.90360 34029 ft 435 kts
2026-05-05 18:18 44.99841 -6.89515 34039 ft 435 kts
2026-05-05 18:18 45.05833 -6.88635 34032 ft 435 kts
2026-05-05 18:19 45.11860 -6.87728 34032 ft 436 kts
2026-05-05 18:19 45.17905 -6.86810 34039 ft 437 kts
2026-05-05 18:20 45.23960 -6.85889 34032 ft 438 kts
2026-05-05 18:20 45.30027 -6.84964 34033 ft 439 kts
2026-05-05 18:21 45.36106 -6.84036 34036 ft 440 kts
2026-05-05 18:21 45.42193 -6.83105 34024 ft 440 kts
2026-05-05 18:22 45.48239 -6.82178 34019 ft 440 kts
2026-05-05 18:22 45.54321 -6.81244 34026 ft 439 kts
2026-05-05 18:23 45.60400 -6.80308 34020 ft 438 kts
2026-05-05 18:23 45.66466 -6.79372 34020 ft 438 kts
2026-05-05 18:24 45.72510 -6.78438 34027 ft 437 kts
2026-05-05 18:24 45.78503 -6.77509 34022 ft 435 kts
2026-05-05 18:25 45.84519 -6.76575 34018 ft 434 kts
2026-05-05 18:25 45.90515 -6.75642 34022 ft 433 kts
2026-05-05 18:26 45.96494 -6.74709 34024 ft 432 kts
2026-05-05 18:26 46.02461 -6.73776 34035 ft 431 kts
2026-05-05 18:27 46.08422 -6.72842 34015 ft 431 kts
2026-05-05 18:27 46.14375 -6.71908 34013 ft 431 kts
2026-05-05 18:28 46.23270 -6.70507 34015 ft 431 kts
2026-05-05 18:28 46.29234 -6.69566 34016 ft 431 kts
2026-05-05 18:29 46.35197 -6.68622 34014 ft 431 kts
2026-05-05 18:29 46.41162 -6.67677 34001 ft 431 kts
2026-05-05 18:30 46.47132 -6.66728 34013 ft 431 kts
2026-05-05 18:30 46.53104 -6.65777 34020 ft 432 kts
2026-05-05 18:31 46.59046 -6.64828 34014 ft 432 kts
2026-05-05 18:31 46.65031 -6.63871 34007 ft 432 kts
2026-05-05 18:32 46.71015 -6.62912 34014 ft 433 kts
2026-05-05 18:32 46.77003 -6.61950 33998 ft 433 kts
2026-05-05 18:33 46.82990 -6.60986 34011 ft 433 kts
2026-05-05 18:33 46.88980 -6.60019 34010 ft 433 kts
2026-05-05 18:34 46.94930 -6.59056 34011 ft 433 kts
2026-05-05 18:34 47.00924 -6.58085 34000 ft 433 kts
2026-05-05 18:35 47.03776 -6.57621 34018 ft 433 kts
2026-05-05 18:35 47.03911 -6.57599 34019 ft 433 kts
2026-05-05 18:36 47.08899 -6.56788 34004 ft 434 kts
2026-05-05 18:36 47.14896 -6.55811 34010 ft 434 kts
2026-05-05 18:37 47.20902 -6.54830 33993 ft 434 kts
2026-05-05 18:37 47.26909 -6.53846 34006 ft 434 kts
2026-05-05 18:38 47.32921 -6.52860 34011 ft 435 kts
2026-05-05 18:38 47.38949 -6.51868 34008 ft 436 kts
2026-05-05 18:39 47.44978 -6.50874 34008 ft 436 kts
2026-05-05 18:39 47.51004 -6.49878 34005 ft 436 kts
2026-05-05 18:40 47.56797 -6.48919 34003 ft 435 kts
2026-05-05 18:40 47.62815 -6.47921 33998 ft 435 kts
2026-05-05 18:41 47.68828 -6.46907 34010 ft 435 kts
2026-05-05 18:41 47.74839 -6.45882 34012 ft 434 kts
2026-05-05 18:42 47.80844 -6.44854 34009 ft 434 kts
2026-05-05 18:42 47.86841 -6.43822 34005 ft 434 kts
2026-05-05 18:43 47.92834 -6.42780 34012 ft 433 kts
2026-05-05 18:43 47.98832 -6.41796 34007 ft 434 kts
2026-05-05 18:44 48.04868 -6.41470 34007 ft 434 kts
2026-05-05 18:44 48.10857 -6.40956 34011 ft 434 kts
2026-05-05 18:45 48.16902 -6.40402 34016 ft 435 kts
2026-05-05 18:45 48.22952 -6.39861 34018 ft 436 kts
2026-05-05 18:46 48.29026 -6.39321 34013 ft 437 kts
2026-05-05 18:46 48.35104 -6.38777 34027 ft 438 kts
2026-05-05 18:47 48.41195 -6.38229 34015 ft 438 kts
2026-05-05 18:47 48.47289 -6.37682 34021 ft 439 kts
2026-05-05 18:48 48.53388 -6.37131 34014 ft 439 kts
2026-05-05 18:48 48.59473 -6.36576 34013 ft 438 kts
2026-05-05 18:49 48.65550 -6.36018 34008 ft 437 kts
2026-05-05 18:49 48.71621 -6.35457 34020 ft 437 kts
2026-05-05 18:50 48.77443 -6.34916 34026 ft 437 kts
2026-05-05 18:50 48.83512 -6.34357 34036 ft 436 kts
2026-05-05 18:51 48.89580 -6.33799 34031 ft 437 kts
2026-05-05 18:51 48.95649 -6.33229 34032 ft 437 kts
2026-05-05 18:52 49.01721 -6.32643 34022 ft 438 kts
2026-05-05 18:52 49.07802 -6.32051 34018 ft 438 kts
2026-05-05 18:53 49.13886 -6.31455 34017 ft 438 kts
2026-05-05 18:53 49.19972 -6.30852 34032 ft 438 kts
2026-05-05 18:54 49.25906 -6.29039 34045 ft 437 kts 20°
2026-05-05 18:54 49.31585 -6.25655 34033 ft 438 kts 19°
2026-05-05 18:55 49.37345 -6.22630 34025 ft 438 kts 17°
2026-05-05 18:55 49.43125 -6.19850 34026 ft 438 kts 17°
2026-05-05 18:56 49.48947 -6.17065 34042 ft 438 kts 17°
2026-05-05 18:56 49.54874 -6.15123 34023 ft 438 kts 357°
2026-05-05 18:57 49.60944 -6.15910 34043 ft 438 kts 355°
2026-05-05 18:57 49.67029 -6.16734 34030 ft 438 kts 355°
2026-05-05 18:58 49.73092 -6.17495 34036 ft 437 kts 356°
2026-05-05 18:58 49.79155 -6.18224 34044 ft 436 kts 356°
2026-05-05 18:59 49.85192 -6.18943 34050 ft 435 kts 356°
2026-05-05 18:59 49.91229 -6.19664 34049 ft 435 kts 356°
2026-05-05 19:00 49.97237 -6.20384 34039 ft 436 kts 356°
2026-05-05 19:00 50.03283 -6.21112 34033 ft 436 kts 356°
2026-05-05 19:01 50.09345 -6.21843 34035 ft 437 kts 355°
2026-05-05 19:01 50.15419 -6.22578 34030 ft 439 kts 355°
2026-05-05 19:02 50.21515 -6.23316 34035 ft 440 kts 355°
2026-05-05 19:02 50.27627 -6.24059 34022 ft 441 kts 355°
2026-05-05 19:03 50.33741 -6.24804 34037 ft 441 kts 355°
2026-05-05 19:03 50.39880 -6.25554 34036 ft 442 kts 355°
2026-05-05 19:04 50.44988 -6.26180 34030 ft 443 kts 355°
2026-05-05 19:04 50.52181 -6.27062 34030 ft 444 kts 354°
2026-05-05 19:05 50.58341 -6.27821 34038 ft 445 kts 354°
2026-05-05 19:05 50.64510 -6.28581 34036 ft 445 kts 354°
2026-05-05 19:06 50.70649 -6.29340 34039 ft 445 kts 354°
2026-05-05 19:06 50.76844 -6.30107 34039 ft 446 kts 354°
2026-05-05 19:07 50.80982 -6.30620 34039 ft 447 kts 354°
2026-05-05 19:07 50.89243 -6.31649 34042 ft 448 kts 354°
2026-05-05 19:08 50.95399 -6.33102 34050 ft 447 kts 347°
2026-05-05 19:08 51.01488 -6.35095 34036 ft 447 kts 347°
2026-05-05 19:09 51.06567 -6.36701 34038 ft 448 kts 348°
2026-05-05 19:09 51.13724 -6.38853 34041 ft 448 kts 348°
2026-05-05 19:10 51.19811 -6.40663 34034 ft 448 kts 348°
2026-05-05 19:10 51.25938 -6.42495 34045 ft 448 kts 348°
2026-05-05 19:11 51.32081 -6.44262 34042 ft 449 kts 349°
2026-05-05 19:11 51.38256 -6.45847 34044 ft 449 kts 349°
2026-05-05 19:12 51.44429 -6.47424 34049 ft 450 kts 349°
2026-05-05 19:12 51.50610 -6.49032 34043 ft 450 kts 349°
2026-05-05 19:13 51.56808 -6.50659 33769 ft 453 kts 349°
2026-05-05 19:13 51.59918 -6.51477 33377 ft 452 kts 349°
2026-05-05 19:13 51.63011 -6.52291 33039 ft 450 kts 349°
2026-05-05 19:14 51.66106 -6.53107 32696 ft 451 kts 349°
2026-05-05 19:14 51.69200 -6.53923 32354 ft 450 kts 349°
2026-05-05 19:14 51.72292 -6.54739 32012 ft 451 kts 349°
2026-05-05 19:14 51.75353 -6.55549 31687 ft 451 kts 349°
2026-05-05 19:15 51.78457 -6.56363 31358 ft 452 kts 350°
2026-05-05 19:15 51.81595 -6.56889 31030 ft 454 kts 354°
2026-05-05 19:15 51.84756 -6.57151 30712 ft 456 kts 356°
2026-05-05 19:15 51.87935 -6.57316 30403 ft 457 kts 356°
2026-05-05 19:16 51.91116 -6.57468 30093 ft 458 kts 356°
2026-05-05 19:16 51.94308 -6.57643 29722 ft 459 kts 356°
2026-05-05 19:16 51.97510 -6.57848 29354 ft 460 kts 355°
2026-05-05 19:16 52.00707 -6.58078 28990 ft 461 kts 355°
2026-05-05 19:17 52.03913 -6.58324 28628 ft 461 kts 355°
2026-05-05 19:17 52.07127 -6.58578 28274 ft 462 kts 355°
2026-05-05 19:17 52.10335 -6.58835 27934 ft 462 kts 355°
2026-05-05 19:17 52.13555 -6.59093 27592 ft 463 kts 355°
2026-05-05 19:18 52.16734 -6.59347 27251 ft 464 kts 355°
2026-05-05 19:18 52.19997 -6.59608 26902 ft 464 kts 355°
2026-05-05 19:18 52.23229 -6.59865 26575 ft 465 kts 355°
2026-05-05 19:18 52.26422 -6.60120 26248 ft 466 kts 355°
2026-05-05 19:19 52.29662 -6.60378 25918 ft 467 kts 355°
2026-05-05 19:19 52.32908 -6.60637 25593 ft 468 kts 355°
2026-05-05 19:19 52.36162 -6.60896 25280 ft 468 kts 355°
2026-05-05 19:19 52.39411 -6.61156 24962 ft 467 kts 355°
2026-05-05 19:20 52.42661 -6.61417 24645 ft 466 kts 355°
2026-05-05 19:20 52.45890 -6.61676 24333 ft 464 kts 355°
2026-05-05 19:20 52.49107 -6.61935 24023 ft 461 kts 355°
2026-05-05 19:20 52.52303 -6.62192 23719 ft 458 kts 355°
2026-05-05 19:21 52.55483 -6.62449 23371 ft 455 kts 355°
2026-05-05 19:21 52.58634 -6.62704 23013 ft 449 kts 355°
2026-05-05 19:21 52.61705 -6.62951 22648 ft 436 kts 355°
2026-05-05 19:21 52.64686 -6.63193 22286 ft 424 kts 355°
2026-05-05 19:22 52.67599 -6.63430 21929 ft 413 kts 355°
2026-05-05 19:22 52.70437 -6.63663 21588 ft 404 kts 355°
2026-05-05 19:22 52.73207 -6.63891 21243 ft 395 kts 355°
2026-05-05 19:22 52.75923 -6.64114 20904 ft 387 kts 355°
2026-05-05 19:23 52.78554 -6.64329 20563 ft 380 kts 355°
2026-05-05 19:23 52.81169 -6.64544 20234 ft 373 kts 355°
2026-05-05 19:23 52.83736 -6.64755 19922 ft 368 kts 354°
2026-05-05 19:23 52.86277 -6.64964 19600 ft 363 kts 354°
2026-05-05 19:24 52.88857 -6.65176 19269 ft 359 kts 354°
2026-05-05 19:24 52.91268 -6.65373 18965 ft 355 kts 354°
2026-05-05 19:24 52.93725 -6.65576 18654 ft 353 kts 355°
2026-05-05 19:24 52.96189 -6.65781 18350 ft 355 kts 355°
2026-05-05 19:25 52.98667 -6.65756 17976 ft 360 kts
2026-05-05 19:25 53.01015 -6.64321 17631 ft 362 kts 28°
2026-05-05 19:25 53.02966 -6.61683 17292 ft 362 kts 43°
2026-05-05 19:25 53.04701 -6.58663 16966 ft 361 kts 45°
2026-05-05 19:26 53.06401 -6.55610 16618 ft 359 kts 45°
2026-05-05 19:26 53.08097 -6.52569 16282 ft 357 kts 45°
2026-05-05 19:26 53.09797 -6.49552 15960 ft 356 kts 44°
2026-05-05 19:26 53.11500 -6.46558 15631 ft 355 kts 44°
2026-05-05 19:27 53.13200 -6.43579 15303 ft 354 kts 44°
2026-05-05 19:27 53.14895 -6.40612 14977 ft 353 kts 44°
2026-05-05 19:27 53.16344 -6.37326 14626 ft 356 kts 64°
2026-05-05 19:27 53.16953 -6.33336 14327 ft 357 kts 86°
2026-05-05 19:28 53.16846 -6.29264 14037 ft 356 kts 94°
2026-05-05 19:28 53.16604 -6.25116 13699 ft 354 kts 95°
2026-05-05 19:28 53.16359 -6.21111 13353 ft 349 kts 94°
2026-05-05 19:28 53.16126 -6.17109 13003 ft 345 kts 94°
2026-05-05 19:29 53.15911 -6.13152 12654 ft 341 kts 94°
2026-05-05 19:29 53.15703 -6.09240 12307 ft 337 kts 94°
2026-05-05 19:29 53.15498 -6.05374 11978 ft 333 kts 94°
2026-05-05 19:29 53.15294 -6.01561 11648 ft 329 kts 94°
2026-05-05 19:30 53.15156 -5.99003 11423 ft 327 kts 94°
2026-05-05 19:30 53.14956 -5.95298 11102 ft 323 kts 94°
2026-05-05 19:30 53.14754 -5.91583 10778 ft 320 kts 94°
2026-05-05 19:30 53.14553 -5.87911 10454 ft 316 kts 94°
2026-05-05 19:31 53.14355 -5.84305 10135 ft 309 kts 94°
2026-05-05 19:31 53.14357 -5.80793 9775 ft 300 kts 76°
2026-05-05 19:31 53.15101 -5.77622 9442 ft 290 kts 59°
2026-05-05 19:31 53.16107 -5.74742 9093 ft 285 kts 57°
2026-05-05 19:32 53.17103 -5.71917 8754 ft 280 kts 57°
2026-05-05 19:32 53.18069 -5.69129 8446 ft 275 kts 58°
2026-05-05 19:32 53.19015 -5.66373 8205 ft 272 kts 58°
2026-05-05 19:32 53.20049 -5.63768 7918 ft 267 kts 42°
2026-05-05 19:33 53.21495 -5.61896 7686 ft 261 kts 32°
2026-05-05 19:33 53.22969 -5.60144 7413 ft 260 kts 33°
2026-05-05 19:33 53.24430 -5.58369 7129 ft 258 kts 33°
2026-05-05 19:33 53.25855 -5.56617 6882 ft 250 kts 33°
2026-05-05 19:34 53.27236 -5.54914 6592 ft 244 kts 33°
2026-05-05 19:34 53.28585 -5.53258 6306 ft 237 kts 31°
2026-05-05 19:34 53.30073 -5.52256 5998 ft 227 kts
2026-05-05 19:35 53.33017 -5.52489 5295 ft 215 kts 320°
2026-05-05 19:35 53.33747 -5.54594 5024 ft 213 kts 285°
2026-05-05 19:35 53.34065 -5.56996 4779 ft 211 kts 287°
2026-05-05 19:35 53.34421 -5.59384 4506 ft 212 kts 287°
2026-05-05 19:36 53.34793 -5.61774 4251 ft 212 kts 288°
2026-05-05 19:36 53.35174 -5.64159 4013 ft 211 kts 288°
2026-05-05 19:36 53.35555 -5.66497 3791 ft 205 kts 289°
2026-05-05 19:36 53.35929 -5.68761 3571 ft 199 kts 289°
2026-05-05 19:37 53.36296 -5.70958 3344 ft 193 kts 289°
2026-05-05 19:37 53.36656 -5.73101 3138 ft 190 kts 290°
2026-05-05 19:37 53.37019 -5.75237 3042 ft 191 kts 290°
2026-05-05 19:37 53.37381 -5.77371 3007 ft 190 kts 290°
2026-05-05 19:38 53.37741 -5.79486 3017 ft 189 kts 290°
2026-05-05 19:38 53.38106 -5.81624 3004 ft 191 kts 290°
2026-05-05 19:38 53.38471 -5.83768 2999 ft 192 kts 289°
2026-05-05 19:38 53.38837 -5.85914 2990 ft 191 kts 289°
2026-05-05 19:39 53.39200 -5.88055 2996 ft 191 kts 289°
2026-05-05 19:39 53.39561 -5.90191 2992 ft 190 kts 289°
2026-05-05 19:39 53.39920 -5.92314 3005 ft 189 kts 289°
2026-05-05 19:39 53.40279 -5.94438 2989 ft 190 kts 288°
2026-05-05 19:40 53.40461 -5.96640 2996 ft 191 kts 278°
2026-05-05 19:40 53.40567 -5.98861 2997 ft 191 kts 279°
2026-05-05 19:40 53.40687 -6.01084 3004 ft 191 kts 279°
2026-05-05 19:40 53.40817 -6.03249 2898 ft 184 kts 281°
2026-05-05 19:41 53.40972 -6.05359 2599 ft 177 kts 280°
2026-05-05 19:41 53.41089 -6.07356 2351 ft 167 kts 279°
2026-05-05 19:41 53.41190 -6.09255 2132 ft 162 kts 279°
2026-05-05 19:41 53.41288 -6.11117 1938 ft 160 kts 278°
2026-05-05 19:42 53.41387 -6.12992 1701 ft 162 kts 278°
2026-05-05 19:42 53.41486 -6.14873 1470 ft 162 kts 277°
2026-05-05 19:42 53.41582 -6.16758 1244 ft 161 kts 277°
2026-05-05 19:42 53.41655 -6.18600 981 ft 155 kts 276°
2026-05-05 19:43 53.41776 -6.20380 754 ft 151 kts 276°
2026-05-05 19:43 53.41869 -6.22071 587 ft 147 kts 273°
2026-05-05 19:43 53.41955 -6.23775 405 ft 147 kts 274°
2026-05-05 19:43 53.42045 -6.25478 228 ft 146 kts 274°
2026-05-05 19:44 53.42135 -6.27032 218 ft 116 kts 276°
2026-05-05 19:44 53.42196 -6.27853 213 ft 29 kts 298°
2026-05-05 19:44 53.42282 -6.28080 210 ft 18 kts 308°
2026-05-05 19:44 53.42362 -6.28037 210 ft 18 kts 94°
2026-05-05 19:45 53.42351 -6.27836 212 ft 17 kts 95°
2026-05-05 19:45 53.42340 -6.27643 210 ft 16 kts 95°
2026-05-05 19:45 53.42330 -6.27456 210 ft 16 kts 95°
2026-05-05 19:45 53.42319 -6.27253 212 ft 19 kts 95°
2026-05-05 19:46 53.42306 -6.27015 218 ft 22 kts 95°
2026-05-05 19:46 53.42291 -6.26734 210 ft 26 kts 95°
2026-05-05 19:46 53.42274 -6.26421 212 ft 27 kts 95°
2026-05-05 19:46 53.42293 -6.26123 210 ft 25 kts 61°
2026-05-05 19:47 53.42407 -6.25913 211 ft 24 kts 46°
2026-05-05 19:47 53.42519 -6.25723 210 ft 23 kts 44°
2026-05-05 19:47 53.42629 -6.25539 210 ft 22 kts 46°
2026-05-05 19:47 53.42732 -6.25359 214 ft 21 kts 46°
2026-05-05 19:48 53.42861 -6.25292 210 ft 21 kts 339°
2026-05-05 19:48 53.42963 -6.25225 210 ft 20 kts 86°
2026-05-05 19:48 53.42956 -6.25060 215 ft 11 kts 94°
2026-05-05 19:48 53.43003 -6.25010 215 ft 0 kts
2026-05-05 19:49 53.43007 -6.25009 213 ft 2 kts
2026-05-05 19:49 53.43011 -6.25009 212 ft 0 kts
2026-05-05 19:49 53.43012 -6.25009 212 ft 0 kts